Regional Weather Roundup
Issued by NWS Midland/Odessa, TX

Skip options and go directly to product.
Home | Oldest Version | Next Version | Current Version | All | Text Only | Save Text | Print | Product List | Glossary On

Skip product version selection by date and time.   
831
ASUS44 KMAF 291402
RWRMAF
MIDLAND AREA WEATHER ROUNDUP
NATIONAL WEATHER SERVICE MIDLAND TX
900 AM CDT WED OCT 29 2014

...IN SOUTHWEST TEXAS AND SOUTHEAST NEW MEXICO...

CITY           SKY/WX    TMP DP  RH WIND       PRES   REMARKS
ALPINE         SUNNY     47  42  83 CALM      30.31R
ANDREWS        FAIR      47  39  74 NE3       30.26R
ARTESIA        NOT AVBL
BIG SPRING     SUNNY     54  39  57 CALM      30.26R
CARLSBAD       CLEAR     45  42  89 W3        30.23R
DRYDEN           N/A     65  52  62 N8        30.17R
FORT STOCKTON  SUNNY     54  43  66 SW3       30.23R
GUAD PASS      NOT AVBL
HOBBS          CLEAR     46  39  76 NE5       30.27R
MARFA          CLEAR     48  43  81 N6        30.28R
MIDLAND AIRPK  SUNNY     50  40  69 NE3       30.25R
MIDLAND INTL   SUNNY     52  40  63 NE5       30.24R
ODESSA         SUNNY     51  38  60 NE8       30.25R
PECOS          CLEAR     50  44  80 CALM      30.24R
PRESIDIO       FAIR      62  46  57 MISG      30.18R
SEMINOLE       CLEAR     45  37  73 NE3       30.27R
SNYDER         SUNNY     49  39  68 NE6       30.26R
WINK           CLEAR     50  39  66 N5        30.23R
$$
...OTHER STATIONS IN TEXAS...

CITY           SKY/WX    TMP DP  RH WIND       PRES   REMARKS
ABILENE        SUNNY     52  41  66 CALM      30.25R
AMARILLO       CLEAR     43  34  70 S8        30.26R WCI  38
AUSTIN         CLOUDY    68  63  84 NE13      30.15R
BROWNSVILLE    PTSUNNY   73  70  90 E3        30.07R
CORPUS CHRISTI MOSUNNY   74  70  87 NE5       30.09R
DALLAS FTW     SUNNY     59  49  69 N6        30.21R
DEL RIO        MOSUNNY   63  61  93 CALM      30.12R FOG
EL PASO        CLEAR     53  41  63 N6        30.20R
HOUSTON INT    MOSUNNY   72  68  87 CALM      30.10R
LUBBOCK        SUNNY     47  36  65 E3        30.26R
SAN ANGELO     CLOUDY    61  44  53 NE7       30.22R
SAN ANTONIO    CLOUDY    71  63  75 NE5       30.14R
WACO           CLOUDY    64  55  72 N12       30.18R
WICHITA FALLS  NOT AVBL
$$
...OTHER LOCATIONS IN NEW MEXICO...

CITY           SKY/WX    TMP DP  RH WIND       PRES   REMARKS
ALAMAGORDO     NOT AVBL
ALBUQUERQUE    PTCLDY    47  22  37 N9        30.30R
CANNON AFB     CLEAR     44  37  77 SW5       30.27R
CLOVIS         CLEAR     39  34  81 S3        30.29R
HOLLOMAN AFB   CLEAR     45  35  67 CALM      30.22R
ROSWELL        CLEAR     45  39  79 N3        30.25R
RUIDOSO        CLEAR     45  32  61 W6        30.34R
SANTA FE       CLEAR     37  13  37 N12       30.31R WCI  29
TRUTH OR CONSE CLEAR     50  36  58 NW7       30.24R
TUCUMCARI      CLEAR     44  38  79 W3        30.24R
$$

USA.gov is the U.S. government's official web portal to all federal, state and local government web resources and services.